EW8542 Weather Reports


Display with metric or nautical units.
time (UTC)temp
F
wind
direction
speed
MPH
gust
MPH
rain 1hr
in
rain 24hr
in
rain mn
in
humidity
%
barometer
mb
20260506090705 56 29 7.0 15.0 0.00 0.00 0.00 55 1010.2
20260506090205 56 37 8.0 16.0 0.00 0.00 0.00 55 1010.1
20260506073205 54 90 8.0 12.0 0.00 0.00 0.00 61 1009.9
20260506072205 54 63 8.0 13.0 0.00 0.00 0.00 66 1009.8
20260506071705 54 62 6.0 12.0 0.00 0.00 0.00 66 1009.8
20260506071205 53 56 7.0 13.0 0.00 0.00 0.00 67 1009.8
20260506070705 53 76 6.0 12.0 0.00 0.00 0.00 68 1009.8
20260506062205 50 58 9.0 14.0 0.00 0.00 0.00 81 1009.8
20260506061705 50 56 5.0 12.0 0.00 0.00 0.00 85 1009.8
20260506061205 50 59 4.0 12.0 0.00 0.00 0.00 87 1009.8
20260506060205 49 39 3.0 8.0 0.00 0.00 0.00 87 1009.8
20260506051205 44 44 1.0 3.0 0.00 0.00 0.00 89 1009.9
20260506050705 44 30 3.0 5.0 0.00 0.00 0.00 89 1009.9
20260506050205 43 42 2.0 5.0 0.00 0.00 0.00 89 1009.9
20260506044705 42 32 3.0 5.0 0.00 0.00 0.00 90 1009.9
20260506043205 41 344 2.0 3.0 0.00 0.00 0.00 90 1009.9
20260506042705 41 337 2.0 3.0 0.00 0.00 0.00 90 1009.9
20260506041705 41 0 2.0 3.0 0.00 0.00 0.00 90 1010.0
20260506041205 41 0 2.0 5.0 0.00 0.00 0.00 90 1010.0
20260506040705 41 31 2.0 5.0 0.00 0.00 0.00 90 1010.0
20260506040205 41 30 2.0 3.0 0.00 0.00 0.00 90 1010.0
20260506035705 41 15 3.0 5.0 0.00 0.00 0.00 90 1010.0
20260506035205 41 11 2.0 5.0 0.00 0.00 0.00 90 1010.0
20260506034705 41 15 2.0 5.0 0.00 0.00 0.00 90 1010.0
20260506034205 41 16 2.0 6.0 0.00 0.00 0.00 90 1010.0
20260506033205 41 26 2.0 5.0 0.00 0.00 0.00 90 1010.0
20260506032705 41 27 2.0 5.0 0.00 0.00 0.00 90 1010.1
20260506032205 40 22 3.0 7.0 0.00 0.00 0.00 89 1010.1
20260506031705 40 15 2.0 7.0 0.00 0.00 0.00 89 1010.1
20260506031205 40 16 2.0 5.0 0.00 0.00 0.00 89 1010.2
20260506030205 40 29 3.0 5.0 0.00 0.00 0.00 89 1010.2
20260506025705 40 17 2.0 3.0 0.00 0.00 0.00 88 1010.2
20260506025204 41 23 2.0 5.0 0.00 0.00 0.00 88 1010.1
20260506024705 41 358 3.0 6.0 0.00 0.00 0.00 89 1010.1
20260506024205 41 0 3.0 8.0 0.00 0.00 0.00 88 1010.1
20260506023705 41 32 3.0 5.0 0.00 0.00 0.00 88 1010.2
20260506023205 41 35 3.0 6.0 0.00 0.00 0.00 88 1010.2
20260506022704 41 24 3.0 5.0 0.00 0.00 0.00 88 1010.2
20260506022204 41 31 3.0 5.0 0.00 0.00 0.00 88 1010.3
20260506021705 41 14 3.0 5.0 0.00 0.00 0.00 88 1010.3
20260506021205 41 3 3.0 6.0 0.00 0.00 0.00 87 1010.3
20260506020705 41 40 2.0 5.0 0.00 0.00 0.00 87 1010.4
20260506020205 41 35 3.0 5.0 0.00 0.00 0.00 87 1010.4
20260506015705 41 358 2.0 6.0 0.00 0.00 0.00 87 1010.5
20260506015205 41 355 2.0 3.0 0.00 0.00 0.00 87 1010.4
20260506014704 41 10 3.0 5.0 0.00 0.00 0.00 86 1010.3
20260506014205 41 340 2.0 5.0 0.00 0.00 0.00 86 1010.3
20260506013205 41 23 2.0 5.0 0.00 0.00 0.00 86 1010.3
20260506012205 41 350 3.0 8.0 0.00 0.00 0.00 87 1010.3
20260506011705 41 349 3.0 3.0 0.00 0.00 0.00 87 1010.3
20260506011204 42 0 1.0 3.0 0.00 0.00 0.00 88 1010.3
20260506010705 42 6 2.0 3.0 0.00 0.00 0.00 88 1010.2
20260506010205 42 357 2.0 3.0 0.00 0.00 0.00 88 1010.3
20260506005705 42 335 2.0 3.0 0.00 0.00 0.00 88 1010.3
20260506005205 42 62 0.0 0.0 0.00 0.00 0.00 88 1010.3
20260506004705 43 64 0.0 0.0 0.00 0.00 0.00 87 1010.2
20260506004205 43 64 0.0 0.0 0.00 0.00 0.00 88 1010.2
20260506003705 43 64 0.0 1.0 0.00 0.00 0.00 88 1010.1
20260506003205 43 64 2.0 3.0 0.00 0.00 0.00 88 1010.1
20260506002704 43 45 1.0 3.0 0.00 0.00 0.00 89 1010.1
20260506002205 44 45 1.0 3.0 0.00 0.00 0.00 89 1010.1
20260506001704 44 45 1.0 3.0 0.00 0.00 0.00 88 1010.1
20260506001204 44 45 2.0 3.0 0.00 0.00 0.00 88 1010.1
20260506000705 44 45 2.0 3.0 0.00 0.00 0.00 88 1010.2
20260506000205 44 45 1.0 3.0 0.00 0.00 0.00 88 1010.2
20260505235205 44 45 2.0 3.0 0.00 0.00 0.00 88 1010.2
20260505234704 44 45 2.0 3.0 0.00 0.00 0.00 88 1010.2
20260505234205 44 36 2.0 3.0 0.00 0.00 0.00 88 1010.2
20260505233205 44 35 1.0 3.0 0.00 0.00 0.00 87 1010.2
20260505232704 44 35 2.0 3.0 0.00 0.00 0.00 87 1010.2
20260505232205 44 35 1.0 3.0 0.00 0.00 0.00 86 1010.2
20260505231705 45 36 1.0 2.0 0.00 0.00 0.00 86 1010.3
20260505231205 45 35 1.0 3.0 0.00 0.00 0.00 87 1010.2
20260505230705 45 19 1.0 3.0 0.00 0.00 0.00 87 1010.2
20260505230205 45 12 1.0 3.0 0.00 0.00 0.00 87 1010.3
20260505225705 45 11 2.0 5.0 0.00 0.00 0.00 88 1010.3
20260505225205 45 34 2.0 3.0 0.00 0.00 0.00 88 1010.3
20260505224704 45 11 2.0 3.0 0.00 0.00 0.00 87 1010.4
20260505224205 46 22 1.0 2.0 0.00 0.00 0.00 87 1010.3
20260505223705 46 22 1.0 2.0 0.00 0.00 0.00 87 1010.4
20260505223205 46 22 1.0 3.0 0.00 0.00 0.00 86 1010.3
20260505221204 47 346 2.0 3.0 0.00 0.00 0.00 86 1010.4
20260505220707 47 55 1.0 3.0 0.00 0.00 0.00 86 1010.4
20260505220204 48 94 1.0 1.0 0.00 0.00 0.00 85 1010.2
20260505215705 48 94 0.0 1.0 0.00 0.00 0.00 85 1010.3
20260505215205 48 94 0.0 1.0 0.00 0.00 0.00 85 1010.3
20260505214705 48 94 0.0 0.0 0.00 0.00 0.00 85 1010.4
20260505214205 48 94 0.0 0.0 0.00 0.00 0.00 84 1010.4
20260505213204 49 94 0.0 0.0 0.00 0.00 0.00 84 1010.4
20260505212704 49 94 0.0 0.0 0.00 0.00 0.00 84 1010.4
20260505212205 49 94 0.0 0.0 0.00 0.00 0.00 84 1010.4
20260505211704 49 94 0.0 0.0 0.00 0.00 0.00 84 1010.4
20260505211205 49 94 0.0 0.0 0.00 0.00 0.00 83 1010.5
20260505210705 49 94 0.0 0.0 0.00 0.00 0.00 84 1010.5
20260505210205 49 94 0.0 0.0 0.00 0.00 0.00 83 1010.5
20260505205704 49 94 0.0 0.0 0.00 0.00 0.00 83 1010.5
20260505204705 49 94 0.0 0.0 0.00 0.00 0.00 82 1010.5
20260505204205 49 94 0.0 0.0 0.00 0.00 0.00 82 1010.5
20260505203704 49 94 0.0 0.0 0.00 0.00 0.00 82 1010.5
20260505203204 49 94 0.0 0.0 0.00 0.00 0.00 82 1010.5
20260505202704 49 94 0.0 0.0 0.00 0.00 0.00 81 1010.4
20260505202205 49 94 0.0 1.0 0.00 0.00 0.00 81 1010.4
20260505201205 49 94 0.0 1.0 0.00 0.00 0.00 81 1010.4
20260505200205 49 94 0.0 0.0 0.00 0.00 0.00 79 1010.3
20260505195704 49 94 0.0 0.0 0.00 0.00 0.00 79 1010.2
20260505195205 50 94 0.0 1.0 0.00 0.00 0.00 78 1010.3
20260505194705 50 94 1.0 2.0 0.00 0.00 0.00 77 1010.3
20260505193705 50 94 0.0 1.0 0.00 0.00 0.00 76 1010.2
20260505193205 50 94 1.0 1.0 0.00 0.00 0.00 75 1010.2
20260505192705 50 94 0.0 1.0 0.00 0.00 0.00 75 1010.2
20260505192205 51 94 1.0 3.0 0.00 0.00 0.00 75 1010.1
20260505185705 52 94 1.0 2.0 0.00 0.00 0.00 72 1009.9
20260505184205 53 94 1.0 3.0 0.00 0.00 0.00 68 1009.8
20260505183705 54 94 2.0 3.0 0.00 0.00 0.00 67 1009.7
20260505183205 54 94 1.0 2.0 0.00 0.00 0.00 67 1009.7
20260505182705 54 94 1.0 3.0 0.00 0.00 0.00 66 1009.8
20260505182205 54 94 2.0 3.0 0.00 0.00 0.00 66 1009.8
20260505181705 55 94 1.0 3.0 0.00 0.00 0.00 66 1009.9
20260505181205 55 94 2.0 3.0 0.00 0.00 0.00 65 1009.8
20260505180205 55 95 2.0 3.0 0.00 0.00 0.00 65 1009.9
20260505175705 55 97 1.0 3.0 0.00 0.00 0.00 64 1009.8
20260505175205 55 87 1.0 3.0 0.00 0.00 0.00 64 1009.9
20260505174705 55 81 3.0 3.0 0.00 0.00 0.00 63 1009.9
20260505174205 56 84 1.0 3.0 0.00 0.00 0.00 63 1009.9
20260505173705 56 80 2.0 3.0 0.00 0.00 0.00 63 1009.9
20260505173205 56 72 2.0 5.0 0.00 0.00 0.00 62 1009.9
20260505172705 56 80 3.0 3.0 0.00 0.00 0.00 62 1009.9
20260505172205 56 59 3.0 5.0 0.00 0.00 0.00 61 1009.9
20260505171704 56 100 3.0 7.0 0.00 0.00 0.00 61 1009.9
20260505171205 56 61 3.0 6.0 0.00 0.00 0.00 61 1010.0
20260505170205 57 81 4.0 10.0 0.00 0.00 0.00 58 1009.9
20260505165705 57 77 4.0 9.0 0.00 0.00 0.00 59 1009.9
20260505165205 57 77 3.0 9.0 0.00 0.00 0.00 58 1009.9
20260505164706 57 78 6.0 9.0 0.00 0.00 0.00 57 1009.9
20260505164205 57 70 5.0 8.0 0.00 0.00 0.00 56 1009.9
20260505163704 57 97 5.0 10.0 0.00 0.00 0.00 57 1009.9
20260505163205 58 81 6.0 12.0 0.00 0.00 0.00 56 1009.9
20260505162705 58 89 6.0 10.0 0.00 0.00 0.00 57 1009.9
20260505162205 58 93 5.0 13.0 0.00 0.00 0.00 56 1010.0
20260505161705 58 61 6.0 12.0 0.00 0.00 0.00 57 1009.9
20260505161205 58 88 6.0 12.0 0.00 0.00 0.00 56 1010.0
20260505160705 58 36 5.0 12.0 0.00 0.00 0.00 56 1009.9
20260505153205 58 56 4.0 10.0 0.00 0.00 0.00 50 1010.1
20260505152705 58 62 5.0 10.0 0.00 0.00 0.00 50 1010.2
20260505152205 59 47 5.0 12.0 0.00 0.00 0.00 51 1010.2
20260505151205 59 43 6.0 10.0 0.00 0.00 0.00 50 1010.1
20260505150205 60 59 6.0 9.0 0.00 0.00 0.00 50 1010.1
20260505124705 60 359 3.0 5.0 0.00 0.00 0.00 60 1010.5
20260505124205 60 347 3.0 8.0 0.00 0.00 0.00 59 1010.6
20260505123705 59 79 3.0 8.0 0.00 0.00 0.00 60 1010.7
20260505123205 59 7 2.0 9.0 0.00 0.00 0.00 59 1010.7
20260505122705 59 2 4.0 8.0 0.00 0.00 0.00 59 1010.7
20260505122205 59 338 3.0 3.0 0.00 0.00 0.00 58 1010.7
20260505121705 59 47 5.0 9.0 0.00 0.00 0.00 61 1010.8
20260505121205 58 38 4.0 9.0 0.00 0.00 0.00 62 1010.8
20260505120205 59 84 6.0 9.0 0.00 0.00 0.00 60 1010.8
20260505115705 59 64 3.0 6.0 0.00 0.00 0.00 60 1010.8
20260505114705 59 332 2.0 10.0 0.00 0.00 0.00 63 1010.7
20260505114205 58 19 2.0 5.0 0.00 0.00 0.00 60 1010.8
20260505113204 58 9 3.0 5.0 0.00 0.00 0.00 62 1010.8
20260505112205 57 70 2.0 5.0 0.00 0.00 0.00 62 1010.9
20260505111705 57 66 4.0 8.0 0.00 0.00 0.00 62 1010.9
20260505110705 58 268 2.0 5.0 0.00 0.00 0.00 62 1011.0
20260505110205 58 2 5.0 9.0 0.00 0.00 0.00 61 1011.0
20260505101705 57 286 1.0 3.0 0.00 0.00 0.00 64 1011.2
20260505101205 57 348 5.0 8.0 0.00 0.00 0.00 65 1011.3
20260505100706 56 310 0.0 5.0 0.00 0.00 0.00 69 1011.3
20260505100205 55 333 2.0 5.0 0.00 0.00 0.00 68 1011.4
20260505095705 55 335 2.0 5.0 0.00 0.00 0.00 67 1011.5
20260505094704 56 343 5.0 10.0 0.00 0.00 0.00 65 1011.6
20260505093705 56 27 5.0 9.0 0.00 0.00 0.00 68 1011.5
20260505093205 55 330 3.0 8.0 0.00 0.00 0.00 67 1011.5
20260505092705 56 333 3.0 7.0 0.00 0.00 0.00 67 1011.5
20260505092205 56 339 4.0 9.0 0.00 0.00 0.00 67 1011.6
20260505091705 55 29 2.0 6.0 0.00 0.00 0.00 70 1011.5
20260505091205 55 347 2.0 6.0 0.00 0.00 0.00 69 1011.6